Theta_e
311 309 316 318 314 308 311 312 313 314 315 315 318 320 320 320 332 329 345 344 340 338 341 342 342 342 342 342 342 342 341 340 338 336 335 335 337 339 341 342 341 341 340 342 342 340 341 340 339
308 311 318 312 312 311 310 312 314 315 315 315 317 320 320 322 339 347 346 345 338 337 340 341 342 341 341 341 342 342 341 340 338 337 336 336 337 338 339 340 341 344 343 345 344 342 340 339 339
309 317 313 314 309 311 309 312 314 315 315 315 318 319 320 327 342 345 343 340 337 338 339 340 340 340 340 340 341 341 341 340 339 337 336 336 337 337 338 339 339 343 343 344 345 344 339 337 336
314 314 311 314 313 311 312 312 313 313 314 314 317 318 322 329 340 341 343 340 337 337 338 337 337 338 340 340 340 341 341 341 340 339 337 336 337 337 337 338 340 341 343 343 343 343 338 335 335
311 309 314 313 314 313 314 314 315 315 315 315 317 318 320 334 341 343 343 336 332 333 333 334 337 339 338 338 338 339 340 340 340 340 339 337 337 338 338 338 338 339 339 339 339 339 337 335 336
308 308 314 316 314 315 314 314 314 316 317 316 315 318 317 339 343 344 342 336 328 329 331 332 332 333 333 336 337 338 338 339 340 340 340 339 338 338 338 338 338 338 338 338 338 336 335 335 336
308 311 314 315 315 315 316 315 316 316 317 316 316 317 319 330 340 343 342 340 336 331 331 331 332 331 332 334 336 336 337 338 339 339 340 340 340 339 339 337 338 338 337 336 336 334 335 333 335
312 314 318 316 318 316 316 316 317 316 314 316 316 316 317 332 337 341 343 342 342 342 340 337 333 332 335 336 336 336 337 337 339 341 341 341 342 342 340 338 338 337 336 336 335 331 334 333 333
312 316 318 319 320 320 319 318 317 315 315 315 315 314 323 334 338 343 346 345 344 343 342 341 338 332 335 336 336 336 336 338 338 341 341 342 343 342 341 339 338 336 335 335 333 329 329 333 332
309 312 318 317 318 317 317 317 317 314 314 316 315 316 327 330 337 338 340 344 346 345 344 342 336 331 334 336 337 336 336 338 337 340 342 342 341 339 339 338 338 336 333 329 329 329 328 331 330
308 312 312 312 312 313 316 317 317 315 314 315 315 315 315 322 324 331 336 343 345 343 344 344 341 332 332 335 336 336 336 336 336 339 340 339 339 337 338 338 337 335 327 326 330 331 332 330 330
310 310 311 311 311 311 311 312 313 311 313 313 312 311 312 315 320 319 328 336 343 345 343 344 343 339 334 336 340 336 335 335 336 336 337 336 337 337 336 336 333 329 327 328 328 328 329 329 330
310 311 311 311 311 311 311 311 311 311 310 309 309 310 309 310 312 317 321 326 339 344 346 345 345 342 339 340 342 339 338 336 335 335 335 335 335 335 334 335 332 329 329 330 328 329 328 327 328
308 307 308 309 309 309 311 310 309 311 309 309 309 310 309 309 310 311 315 319 321 342 345 345 345 344 342 340 343 341 338 339 337 336 336 336 335 335 334 334 333 331 330 330 329 328 326 327 329
312 312 310 310 310 309 309 309 309 308 308 308 310 310 310 311 310 309 312 315 318 322 339 345 345 344 342 341 343 342 339 342 340 338 337 337 336 335 334 333 332 331 330 330 331 327 326 327 329
310 310 311 311 310 310 308 310 309 308 308 309 310 310 310 310 311 312 312 313 315 320 329 338 343 344 342 340 342 340 340 341 342 339 338 337 336 335 335 333 331 329 328 330 331 330 329 328 328
309 311 311 310 309 309 309 310 309 308 309 309 309 308 309 310 310 311 312 313 314 315 318 336 343 344 343 340 341 340 340 340 341 339 338 337 336 335 335 333 332 329 328 333 333 329 328 329 329
310 311 308 307 307 309 308 308 308 307 307 308 307 305 306 308 309 312 314 314 314 315 314 331 340 343 341 339 340 339 340 339 338 338 337 336 335 335 334 333 332 331 329 329 331 329 329 328 328
308 308 308 308 307 309 307 307 308 308 307 308 309 310 310 310 311 310 312 314 315 315 316 334 341 341 340 338 337 336 337 338 337 336 336 335 334 334 334 332 333 332 331 329 330 329 328 328 327
308 308 308 308 308 308 308 308 309 308 307 309 311 311 311 312 312 312 311 313 316 314 319 339 340 340 339 338 336 333 334 332 331 335 334 334 334 332 333 333 332 331 330 327 329 328 327 327 327
310 309 309 311 310 308 308 310 311 310 310 311 312 313 319 319 316 313 312 311 315 314 334 339 339 338 337 336 334 333 331 331 331 332 333 333 332 333 332 332 331 329 326 328 327 327 327 327 326
311 311 311 311 310 311 312 315 312 312 312 312 312 320 319 317 318 315 316 317 317 316 330 338 338 337 336 335 333 332 330 328 329 329 331 331 331 331 331 331 329 329 328 327 326 326 327 326 325
311 311 311 310 311 312 312 312 312 316 325 323 323 321 318 315 314 315 316 316 318 329 336 338 338 336 333 334 334 331 328 327 327 328 330 327 326 328 329 330 330 329 328 326 325 326 326 326 324
311 313 312 312 312 315 312 312 314 324 322 319 320 319 317 314 312 312 313 313 313 323 338 338 337 334 333 333 332 331 328 328 328 328 327 327 327 328 328 330 329 327 327 327 326 326 326 326 325
310 311 314 315 313 315 313 315 316 319 319 318 320 319 314 312 310 310 311 312 312 315 323 337 336 333 333 332 331 330 330 329 328 327 327 326 328 328 328 328 328 327 327 326 326 326 326 325 324
309 311 314 319 316 312 313 315 322 319 317 316 319 316 312 309 308 308 309 308 310 314 325 336 335 333 331 331 329 330 330 329 328 327 327 327 327 328 328 327 327 327 326 326 326 326 326 325 324
312 312 311 314 313 316 314 319 320 319 319 319 319 314 309 306 306 306 306 305 307 310 317 334 335 333 330 329 330 330 330 328 328 327 328 328 327 327 326 326 326 325 325 326 325 325 325 324 324
312 313 311 311 317 319 316 317 323 321 320 320 317 312 306 304 303 303 302 302 304 306 309 321 331 332 330 329 330 329 329 328 327 327 328 327 326 325 325 324 322 322 323 323 324 324 324 324 323
306 309 314 314 316 318 317 316 319 319 319 320 313 308 303 302 302 300 300 300 301 303 305 310 318 330 330 330 329 329 328 328 327 328 327 327 326 324 323 322 322 323 324 323 323 323 324 323 323
306 313 317 319 318 316 316 316 319 318 318 312 308 305 302 300 299 299 298 298 298 299 301 304 309 315 329 328 329 327 328 328 327 327 327 326 325 324 323 322 322 323 323 323 323 323 323 323 322
Wind_Speed
6 5 1 3 3 4 4 10 4 12 5 3 7 3 6 5 4 5 5 19 24 30 28 26 25 25 25 25 23 22 21 20 18 16 15 15 16 18 19 21 21 20 22 23 22 22 20 19 19
4 5 2 2 4 3 6 5 9 16 5 10 14 6 3 4 3 7 10 20 31 30 29 27 24 23 23 24 23 21 20 19 18 17 16 16 16 17 18 19 20 19 20 20 20 20 20 19 19
4 4 3 4 5 8 5 6 14 6 7 10 5 3 3 3 3 11 14 31 30 30 30 27 24 22 21 23 22 21 19 18 17 17 16 15 16 17 17 18 18 19 19 18 18 18 19 19 19
5 3 3 2 11 7 5 9 2 11 10 10 6 5 2 3 16 15 31 27 27 29 27 25 23 22 21 21 21 21 19 18 17 17 17 16 15 16 17 18 19 20 19 18 19 18 17 20 21
1 3 2 4 7 7 7 15 12 14 7 12 5 6 4 2 18 33 31 26 29 28 25 24 23 22 21 21 21 21 20 18 18 18 17 16 16 16 16 16 17 18 17 15 14 13 16 20 22
1 3 1 9 11 4 8 11 6 14 16 13 7 6 5 16 30 33 33 31 30 31 26 24 22 21 20 20 20 20 20 19 18 18 18 17 16 16 16 16 15 14 13 14 13 15 14 19 25
5 4 5 4 3 5 12 4 4 10 12 10 4 8 1 3 21 38 36 32 30 30 27 24 21 20 18 19 19 19 19 19 19 18 18 17 16 16 17 17 18 19 19 19 17 19 16 19 25
4 3 4 4 7 7 9 7 4 7 11 10 4 4 3 5 20 32 34 32 31 31 29 26 22 20 21 20 19 19 19 19 18 17 16 15 16 17 19 21 21 23 19 20 22 25 26 25 26
4 3 4 5 6 9 16 15 11 4 5 7 10 9 3 18 27 27 25 25 28 27 26 25 24 22 21 20 19 19 19 19 19 19 19 18 17 18 20 21 22 22 22 23 25 24 26 23 26
5 5 7 8 9 8 12 16 21 9 7 7 7 9 13 4 22 19 15 17 21 27 26 24 23 24 21 20 20 20 20 21 20 21 21 20 19 19 20 20 23 23 23 24 22 19 13 27 25
5 10 5 7 10 12 14 18 17 16 12 6 9 9 3 7 10 9 16 25 31 31 28 27 24 22 23 22 21 21 21 21 21 21 21 20 21 20 20 22 20 22 21 21 17 18 21 24 26
6 9 9 10 15 14 17 20 20 12 12 8 9 8 4 7 10 9 12 24 26 30 33 31 29 28 26 25 23 22 22 22 23 23 23 22 22 21 22 22 22 24 24 21 21 15 28 23 26
8 14 14 14 14 16 16 18 20 19 8 11 10 9 10 8 10 18 25 21 34 28 35 36 34 32 30 29 28 24 22 23 25 24 25 25 23 23 21 23 24 26 26 24 23 27 31 29 28
8 9 7 7 8 6 6 9 5 7 11 13 8 12 11 10 10 15 21 28 22 32 36 39 36 33 33 34 32 29 25 24 25 27 28 24 23 23 22 24 26 29 25 25 29 32 29 32 31
4 5 7 4 4 5 3 19 10 9 9 14 18 18 15 18 13 13 23 26 32 31 36 40 41 38 36 36 33 31 27 27 28 28 29 26 24 23 22 26 28 28 26 27 29 31 30 30 28
6 3 3 1 6 7 6 18 15 14 12 19 23 16 16 17 17 25 26 31 32 38 33 39 41 42 39 39 36 31 32 26 32 30 31 28 25 24 24 26 29 29 27 26 28 31 29 28 28
4 5 10 9 5 8 6 12 10 11 11 10 10 9 10 10 11 19 30 31 37 39 36 40 40 43 44 41 39 36 30 25 30 30 31 27 25 25 26 26 28 31 29 28 28 31 30 25 23
5 4 7 7 5 5 13 13 13 11 10 14 10 10 10 11 13 19 24 28 35 39 34 38 43 44 37 38 37 34 30 26 27 29 29 28 25 26 28 27 26 27 29 28 28 30 32 28 27
8 9 14 15 11 5 8 13 17 13 10 14 13 16 16 18 15 19 25 26 30 35 29 34 37 36 39 38 35 32 33 30 28 27 27 27 26 26 29 27 27 28 30 31 29 30 29 25 27
10 13 17 16 13 6 15 21 20 12 10 16 18 16 18 21 19 19 18 23 24 26 30 37 42 45 44 41 34 29 34 31 28 27 25 26 27 27 29 29 29 30 29 25 27 29 20 19 28
10 9 6 11 8 7 5 17 16 7 8 12 15 8 13 16 21 21 17 15 26 19 31 37 42 46 38 37 33 25 29 23 22 26 26 26 25 27 27 27 30 30 27 25 29 31 28 21 21
12 8 7 7 5 10 4 11 7 8 16 17 12 10 12 18 23 12 9 10 16 18 33 40 42 41 39 42 33 37 32 24 19 21 27 24 23 25 24 24 26 28 28 26 28 31 30 25 22
7 6 5 5 5 6 16 5 4 9 10 19 19 15 15 16 17 18 16 15 19 8 29 36 39 38 38 40 39 35 25 22 24 24 26 25 24 22 22 22 25 26 26 26 25 25 30 30 27
1 2 4 3 0 9 18 7 2 2 6 16 18 19 15 17 18 18 19 21 23 16 15 26 34 33 35 37 38 36 32 29 27 27 27 26 25 24 22 24 27 26 27 30 28 29 30 31 28
4 5 3 4 0 6 4 4 5 4 12 11 13 15 16 16 16 18 19 18 20 20 11 21 27 29 37 38 36 35 34 33 30 31 28 21 21 23 23 25 25 26 28 29 30 32 32 34 35
8 8 5 6 4 10 8 6 2 5 8 10 8 9 17 22 16 16 16 15 20 24 9 23 20 17 30 34 31 35 33 31 29 30 27 23 26 24 24 23 23 26 27 29 32 33 33 32 34
4 5 9 5 7 6 4 2 2 5 5 5 9 11 12 13 16 16 17 18 23 25 23 11 29 32 29 31 36 35 32 30 28 26 25 26 25 24 22 22 24 25 26 29 32 31 32 34 36
5 1 1 2 3 5 4 4 2 6 8 9 7 9 9 10 14 16 16 18 24 24 24 19 4 18 26 31 35 33 31 30 28 27 27 25 21 22 19 20 20 20 22 24 27 27 29 33 31
9 6 5 4 4 4 4 4 4 7 6 6 5 9 11 14 14 14 15 21 23 25 26 18 26 14 11 18 28 29 28 28 29 26 26 21 19 20 19 20 18 16 18 21 21 22 28 32 28
9 5 3 3 5 4 4 9 6 8 5 9 9 9 8 10 12 13 14 19 22 25 28 29 28 21 9 11 26 28 28 27 27 24 19 17 19 19 19 18 17 17 17 15 20 24 25 32 27
Wind_Direction
274 244 291 46 68 70 233 246 277 278 317 233 296 248 193 190 174 208 167 176 161 158 163 167 168 163 158 154 158 159 159 158 157 158 160 159 158 157 159 163 165 167 170 169 164 163 159 158 156
251 168 80 79 108 146 244 241 233 237 237 303 319 254 282 256 95 130 127 166 161 159 162 167 169 168 162 157 160 163 165 164 163 166 168 169 168 166 166 167 170 171 170 166 163 165 165 163 163
178 154 98 150 179 217 229 221 234 297 313 299 253 226 228 184 82 146 162 157 158 161 164 168 172 172 169 160 162 166 169 170 170 171 174 177 176 175 173 174 175 174 176 172 168 167 172 168 162
171 40 13 179 234 272 228 277 245 318 301 276 274 267 289 300 156 165 153 157 159 162 167 171 174 174 171 165 165 168 173 176 176 177 178 182 185 183 182 182 179 183 183 178 179 182 178 165 157
74 57 206 229 251 253 273 270 291 289 273 274 268 253 211 248 160 153 155 157 160 164 170 175 177 177 175 171 168 171 176 182 182 182 182 184 189 191 190 191 192 194 192 189 186 187 178 166 158
42 111 170 232 237 261 274 258 282 280 278 277 241 224 222 159 145 157 160 162 165 162 168 174 177 181 180 178 175 174 177 183 188 188 186 187 194 194 196 199 199 199 192 191 181 173 192 180 162
152 121 226 249 269 247 252 193 234 277 319 308 266 174 161 246 162 166 166 165 163 163 163 172 175 179 183 181 180 176 179 181 189 192 192 191 196 196 197 199 198 197 196 196 187 170 188 196 171
147 130 233 217 246 275 274 290 279 306 308 321 291 197 213 211 160 162 163 163 164 165 167 173 179 182 183 182 180 178 180 180 185 186 186 185 191 196 198 204 204 205 200 195 191 190 182 200 183
138 247 231 241 230 254 293 299 290 295 314 325 336 328 231 156 153 140 143 152 160 165 171 175 180 183 185 186 183 180 181 183 181 186 191 189 191 197 201 205 209 207 204 204 203 204 203 209 190
174 216 235 241 257 275 283 282 292 311 314 307 331 355 360 351 152 150 155 161 164 171 178 182 181 184 184 188 189 188 184 188 186 191 194 188 191 196 199 204 210 198 194 206 208 205 200 199 194
209 241 267 272 279 276 275 289 280 288 279 265 277 291 202 273 285 180 179 175 182 189 185 189 187 187 188 190 192 195 193 191 190 194 195 188 190 194 195 204 210 204 204 188 180 182 169 189 199
257 270 259 263 260 266 269 270 276 251 263 234 243 240 200 179 256 269 217 193 190 190 200 199 196 191 192 192 193 195 195 195 194 193 195 187 188 193 194 201 205 193 190 190 180 188 173 187 203
226 254 258 258 257 264 273 268 266 274 256 267 277 270 260 242 206 247 253 235 203 190 198 203 198 193 192 194 190 198 198 195 197 194 195 192 192 195 198 200 198 197 190 188 187 177 173 183 205
269 274 281 270 250 243 262 263 273 291 285 292 274 278 270 243 243 207 228 245 239 201 198 207 201 201 195 198 194 197 199 197 197 197 198 197 200 198 199 194 195 196 198 197 187 180 182 187 204
248 292 302 238 266 277 340 282 265 273 287 285 281 275 267 269 242 237 235 226 240 223 211 205 209 202 198 201 195 191 197 203 204 199 202 199 204 201 200 196 195 196 194 194 189 188 192 198 204
345 316 301 269 307 283 116 284 292 283 277 276 271 273 277 276 271 273 255 242 236 235 204 209 207 205 199 199 196 191 196 205 205 201 200 202 205 202 200 198 197 199 199 197 196 202 205 207 203
321 266 285 298 242 265 190 278 288 300 295 289 271 272 263 265 276 270 264 246 242 233 223 201 201 203 202 199 195 192 194 194 197 198 200 202 202 199 201 203 203 206 203 201 202 208 201 198 200
227 239 260 239 265 264 287 276 268 273 281 280 273 262 256 257 248 260 262 264 247 239 224 200 199 201 190 191 188 186 187 179 188 193 199 200 200 199 203 203 206 204 204 205 205 208 201 206 203
237 273 273 275 274 253 257 273 284 284 286 289 289 290 284 277 265 252 257 262 256 241 213 194 183 186 178 180 178 176 182 184 183 192 195 200 200 201 204 206 203 202 203 205 206 200 198 195 199
236 253 268 281 270 256 293 284 282 271 260 268 275 282 280 279 278 267 251 256 250 230 201 179 183 187 187 185 184 177 180 188 192 198 200 203 204 207 206 205 204 206 203 199 196 197 185 188 190
243 233 236 273 292 269 279 285 286 278 283 280 279 307 352 334 287 264 251 234 244 215 181 178 180 187 182 175 173 173 171 172 184 198 205 207 206 205 206 207 210 206 204 196 201 200 191 190 201
251 253 287 280 308 292 122 289 302 287 296 295 291 19 1 357 356 350 355 350 326 219 195 183 182 178 179 177 172 173 172 168 191 194 203 201 202 205 209 212 212 212 202 209 201 199 200 192 181
244 211 258 289 270 320 284 248 303 347 3 8 3 0 346 14 351 349 346 343 342 271 187 184 177 174 174 173 180 171 165 175 178 194 199 204 211 214 211 210 208 210 210 214 207 197 199 191 176
296 22 338 279 218 277 279 207 354 45 358 4 346 343 347 16 349 345 344 354 353 4 189 177 174 173 167 174 178 175 169 168 171 184 198 204 211 212 213 213 215 215 218 216 210 207 204 190 184
181 75 326 320 342 237 317 331 266 318 323 332 334 329 343 9 349 343 347 359 351 338 298 185 178 165 172 176 177 176 179 175 174 182 192 193 201 203 207 215 219 220 223 220 213 206 203 192 181
187 161 169 243 241 287 311 264 1 340 317 301 310 1 1 348 352 344 338 358 352 343 276 170 187 169 168 172 170 175 179 176 178 187 193 197 203 201 204 210 220 224 226 229 224 214 207 195 186
212 152 215 253 269 286 246 107 183 338 323 25 342 26 16 337 337 339 347 1 356 354 360 196 173 180 172 168 170 177 179 177 182 189 195 202 203 207 207 213 218 223 229 226 222 210 196 194 182
354 49 290 356 278 250 258 269 236 322 324 348 358 10 9 352 353 352 357 356 357 357 357 32 150 179 171 163 169 174 177 175 183 189 194 202 203 209 210 212 220 228 230 234 238 200 184 180 178
345 335 333 281 174 245 288 256 214 240 240 288 48 26 11 7 359 356 357 359 358 3 6 12 39 82 139 168 166 171 172 178 180 186 195 195 204 207 207 211 209 215 225 220 214 187 186 183 174
277 346 32 279 327 299 260 269 199 237 350 76 40 26 18 17 8 1 3 4 7 7 6 15 30 27 105 163 162 161 159 165 174 184 185 191 196 203 204 206 207 209 213 220 217 209 185 183 180